Flag for U.S.A. Weather past 2 weeks in Boulder, Colorado, U.S.A.

Now
61 °F

Mostly cloudy.


Feels Like: 61 °F
Forecast: 48 / 65 °F
Wind: 9 mph from North

Location: Broomfield / Jeffco

Current Time: May 6, 2015 at 5:34:28 PM

Latest Report: May 6, 2015 at 4:53 PM


Visibility: 20 mi

Pressure: 29.72 "Hg

Humidity: 63%

Dew point: 48 °F

Location of BoulderLocation

Historic Weather in Boulder — Graph

°F

Boulder temperature yesterday

Maximum temperature yesterday: 54 °F (at 11:52 AM)
Minimum temperature yesterday: 46 °F (at 5:35 AM)
Average temperature yesterday: 50 °F

Past Weeks' High & Low Weather Summary

 TemperatureHumidityPressure
High79 °F (Apr 30, 3:53 PM)100% (Apr 26, 7:47 PM)30.37 "Hg (Apr 26, 7:47 PM)
Low37 °F (Apr 22, 5:56 AM)16% (Apr 30, 3:53 PM)29.66 "Hg (Apr 24, 1:50 PM)
Average51 °F66%29.99 "Hg
* Reported Apr 21 3:50 PM — May 6 3:53 PM, Boulder, Weather by CustomWeather, © 2015

Note: Actual official high and low records may vary slightly from our data, if they occured in-between our weather recording intervals... More about our weather records

Advertising

Boulder weather history for previous 24 hours

 ConditionsComfort  
Time TempWeatherWind HumidityBarometerVisibility
3:53 PM
Wed, May 6
61 °FMostly cloudy.7 mph63%29.70 "Hg20 mi
2:48 PM61 °FBroken clouds.7 mph63%29.70 "Hg20 mi
12:47 PM61 °FBroken clouds.5 mph63%29.71 "Hg20 mi
11:45 AM59 °FBroken clouds.5 mph72%29.73 "Hg15 mi
10:53 AM55 °FCloudy.No wind77%29.73 "Hg15 mi
9:47 AM54 °FCloudy.No wind82%29.73 "Hg15 mi
8:53 AM52 °FCloudy.No wind88%29.74 "Hg10 mi
7:47 AM50 °FCloudy.No wind88%29.72 "Hg15 mi
6:47 AM48 °FMostly cloudy.No wind94%29.72 "Hg15 mi
5:55 AM46 °FOvercast.3 mph100%29.72 "Hg10 mi
5:35 AM46 °FOvercast.3 mph100%29.72 "Hg10 mi
5:15 AM48 °FMostly cloudy.3 mph94%29.71 "Hg7 mi
4:55 AM48 °FMostly cloudy.5 mph94%29.72 "Hg7 mi
4:35 AM48 °FRain. Overcast.5 mph100%29.72 "Hg7 mi
4:15 AM46 °FLight rain. Mostly cloudy.5 mph100%29.72 "Hg5 mi
3:55 AM46 °FDrizzle. Mostly cloudy.No wind100%29.72 "Hg5 mi
3:35 AM46 °FFog.3 mph100%29.72 "Hg5 mi
3:15 AM46 °FFog.6 mph100%29.73 "Hg4 mi
2:56 AM46 °FFog.6 mph100%29.74 "Hg4 mi
2:36 AM46 °FFog.3 mph100%29.74 "Hg4 mi
2:16 AM46 °FFog.No wind100%29.74 "Hg4 mi
1:55 AM46 °FFog.3 mph100%29.74 "Hg5 mi
1:34 AM46 °FPartly cloudy.No wind100%29.74 "Hg10 mi
1:15 AM48 °FPassing clouds.No wind94%29.75 "Hg10 mi
12:55 AM48 °FPassing clouds.No wind94%29.76 "Hg10 mi
12:35 AM48 °FMostly cloudy.3 mph94%29.76 "Hg10 mi
12:15 AM48 °FPartly cloudy.5 mph94%29.77 "Hg10 mi
11:55 PM
Tue, May 5
48 °FOvercast.5 mph100%29.78 "Hg10 mi
11:34 PM48 °FOvercast.6 mph100%29.78 "Hg10 mi
11:16 PM48 °FMostly cloudy.5 mph100%29.78 "Hg10 mi
9:53 PM50 °FDrizzle. Mostly cloudy.7 mph100%29.82 "Hg5 mi
8:53 PM50 °FDrizzle. Mostly cloudy.7 mph100%29.82 "Hg5 mi
7:47 PM50 °FFog.7 mph100%29.82 "Hg5 mi
6:53 PM50 °FFog.6 mph100%29.82 "Hg3 mi
5:53 PM52 °FFog.5 mph94%29.84 "Hg4 mi
Weather by CustomWeather, © 2015

See weather overviewHow to use our weather pages